Regional Weather Roundup
Issued by NWS

Home | Current Version | Previous Version | Text Only | Print | Product List | Glossary Off
Versions: 1 2 3 4 5 6 7 8 9 10 11 12 13 14 15 16 17 18 19 20 21 22 23 24 25 26 27 28 29 30 31 32 33 34 35 36 37 38 39 40 41 42 43 44 45 46 47 48 49 50

747
ASUS43 KBIS 121510
RWRND
NORTH DAKOTA REGIONAL WEATHER ROUNDUP
NATIONAL WEATHER SERVICE EASTERN NORTH DAKOTA/GRAND FORKS ND
900 AM CST FRI FEB 12 2016

  NOTE: "FAIR" INDICATES FEW OR NO CLOUDS BELOW 12,000 FEET WITH NO
  SIGNIFICANT WEATHER AND/OR OBSTRUCTIONS TO VISIBILITY.

NDZ001>003-009>011-017-121600-
...NORTHWEST NORTH DAKOTA...

CITY           SKY/WX    TMP DP  RH WIND       PRES   REMARKS
WILLISTON      CLOUDY     2  -4  76 N6        30.56R WCI  -9
MINOT          PTCLDY     0 -11  59 N9        30.57R WCI -15
MINOT AFB      PTCLDY    -3 -11  69 N7        30.58R WCI -17
$$

NDZ018>021-031>035-040>046-121600-
...SOUTHWEST NORTH DAKOTA...

CITY           SKY/WX    TMP DP  RH WIND       PRES   REMARKS
BISMARCK       CLOUDY     7  -2  66 VRB5      30.57R WCI  -2
DICKINSON      LGT SNOW   6   1  80 NE12      30.45R WCI  -9
GARRISON         N/A     -1  -8  72 N7        30.55R WCI -14
HETTINGER      CLOUDY    15  12  88 NE13      30.45R FOG     WCI   1
$$

NDZ004>008-012>016-024-026-027-054-121600-
...NORTHEAST NORTH DAKOTA...

CITY           SKY/WX    TMP DP  RH WIND       PRES   REMARKS
GRAND FORKS    MOSUNNY   -4 -13  65 N20       30.61R WCI -27
GRAND FORKS AF SUNNY     -4 -15  59 N22       30.60R WCI -29
DEVILS LAKE    PTCLDY    -9 -15  75 N15       30.58R WCI -31
$$

NDZ022-023-025-028>030-036>039-047>053-121600-
...SOUTHEAST NORTH DAKOTA...

CITY           SKY/WX    TMP DP  RH WIND       PRES   REMARKS
JAMESTOWN      PTSUNNY   -1  -9  68 N16       30.55R WCI -21
FARGO          PTSUNNY    0  -9  65 N22       30.57R WCI -23
WAHPETON       MOSUNNY    1  -6  71 N15       30.54R WCI -18
$$




USA.gov is the U.S. government's official web portal to all federal, state and local government web resources and services.